Year,Month,Day,Hour,Minute,Value (Times are PST for temperature in C)
2015,07,01,00,00,19.50
2015,07,01,00,01,19.40
2015,07,01,00,02,19.40
2015,07,01,00,03,19.40
2015,07,01,00,04,19.40
2015,07,01,00,05,19.40
2015,07,01,00,06,19.50
2015,07,01,00,07,19.50
2015,07,01,00,08,19.60
2015,07,01,00,09,19.60
2015,07,01,00,10,19.70
2015,07,01,00,11,19.70
2015,07,01,00,12,19.80
2015,07,01,00,13,19.80
2015,07,01,00,14,19.90
2015,07,01,00,15,19.90
2015,07,01,00,16,19.90
2015,07,01,00,17,20.00
2015,07,01,00,18,20.10
2015,07,01,00,19,20.20
2015,07,01,00,20,20.20
2015,07,01,00,21,20.20
2015,07,01,00,22,20.30
2015,07,01,00,23,20.30
2015,07,01,00,24,20.40
2015,07,01,00,25,20.40
2015,07,01,00,26,20.50
2015,07,01,00,27,20.50
2015,07,01,00,28,20.60
2015,07,01,00,29,20.60
2015,07,01,00,30,20.60
2015,07,01,00,31,20.70
2015,07,01,00,32,20.70
2015,07,01,00,33,20.70
2015,07,01,00,34,20.80
2015,07,01,00,35,20.80
2015,07,01,00,36,20.80
2015,07,01,00,37,20.80
2015,07,01,00,38,20.70
2015,07,01,00,39,20.70
2015,07,01,00,40,20.60
2015,07,01,00,41,20.60
2015,07,01,00,42,20.50
2015,07,01,00,43,20.40
2015,07,01,00,44,20.30
2015,07,01,00,45,20.20
2015,07,01,00,46,20.20
2015,07,01,00,47,20.00
2015,07,01,00,48,19.90
2015,07,01,00,49,19.80
2015,07,01,00,50,19.70
2015,07,01,00,51,19.70
2015,07,01,00,52,19.60
2015,07,01,00,53,19.50
2015,07,01,00,54,19.40
2015,07,01,00,55,19.40
2015,07,01,00,56,19.30
2015,07,01,00,57,19.30
2015,07,01,00,58,19.30
2015,07,01,00,59,19.20
2015,07,01,01,00,19.20
2015,07,01,01,01,19.20
2015,07,01,01,02,19.20
2015,07,01,01,03,19.10
2015,07,01,01,04,19.10
2015,07,01,01,05,19.10
2015,07,01,01,06,19.10
2015,07,01,01,07,19.10
2015,07,01,01,08,19.00
2015,07,01,01,09,18.90
2015,07,01,01,10,18.90
2015,07,01,01,11,18.90
2015,07,01,01,12,18.90
2015,07,01,01,13,18.90
2015,07,01,01,14,18.90
2015,07,01,01,15,18.90
2015,07,01,01,16,18.90
2015,07,01,01,17,18.90
2015,07,01,01,18,18.90
2015,07,01,01,19,18.90
2015,07,01,01,20,18.90
2015,07,01,01,21,18.90
2015,07,01,01,22,18.90
2015,07,01,01,23,18.90
2015,07,01,01,24,18.90
2015,07,01,01,25,18.90
2015,07,01,01,26,18.90
2015,07,01,01,27,18.90
2015,07,01,01,28,18.90
2015,07,01,01,29,18.90
2015,07,01,01,30,18.90
2015,07,01,01,31,18.80
2015,07,01,01,32,18.80
2015,07,01,01,33,18.70
2015,07,01,01,34,18.70
2015,07,01,01,35,18.60
2015,07,01,01,36,18.60
2015,07,01,01,37,18.50
2015,07,01,01,38,18.50
2015,07,01,01,39,18.50
2015,07,01,01,40,18.40
2015,07,01,01,41,18.40
2015,07,01,01,42,18.40
2015,07,01,01,43,18.30
2015,07,01,01,44,18.30
2015,07,01,01,45,18.30
2015,07,01,01,46,18.30
2015,07,01,01,47,18.30
2015,07,01,01,48,18.30
2015,07,01,01,49,18.30
2015,07,01,01,50,18.30
2015,07,01,01,51,18.30
2015,07,01,01,52,18.30
2015,07,01,01,53,18.30
2015,07,01,01,54,18.40
2015,07,01,01,55,18.40
2015,07,01,01,56,18.40
2015,07,01,01,57,18.40
2015,07,01,01,58,18.40
2015,07,01,01,59,18.40
2015,07,01,02,00,18.50
2015,07,01,02,01,18.50
2015,07,01,02,02,18.50
2015,07,01,02,03,18.60
2015,07,01,02,04,18.60
2015,07,01,02,05,18.70
2015,07,01,02,06,18.70
2015,07,01,02,07,18.70
2015,07,01,02,08,18.80
2015,07,01,02,09,18.80
2015,07,01,02,10,18.90
2015,07,01,02,11,18.90
2015,07,01,02,12,18.90
2015,07,01,02,13,18.90
2015,07,01,02,14,18.90
2015,07,01,02,15,18.90
2015,07,01,02,16,18.90
2015,07,01,02,17,18.90
2015,07,01,02,18,18.90
2015,07,01,02,19,18.90
2015,07,01,02,20,18.90
2015,07,01,02,21,18.90
2015,07,01,02,22,18.90
2015,07,01,02,23,18.80
2015,07,01,02,24,18.80
2015,07,01,02,25,18.80
2015,07,01,02,26,18.80
2015,07,01,02,27,18.80
2015,07,01,02,28,18.70
2015,07,01,02,29,18.70
2015,07,01,02,30,18.70
2015,07,01,02,31,18.70
2015,07,01,02,32,18.70
2015,07,01,02,33,18.70
2015,07,01,02,34,18.70
2015,07,01,02,35,18.70
2015,07,01,02,36,18.70
2015,07,01,02,37,18.60
2015,07,01,02,38,18.60
2015,07,01,02,39,18.60
2015,07,01,02,40,18.70
2015,07,01,02,41,18.70
2015,07,01,02,42,18.70
2015,07,01,02,43,18.70
2015,07,01,02,44,18.70
2015,07,01,02,45,18.70
2015,07,01,02,46,18.80
2015,07,01,02,47,18.80
2015,07,01,02,48,18.80
2015,07,01,02,49,18.70
2015,07,01,02,50,18.60
2015,07,01,02,51,18.50
2015,07,01,02,52,18.40
2015,07,01,02,53,18.20
2015,07,01,02,54,18.10
2015,07,01,02,55,18.10
2015,07,01,02,56,17.90
2015,07,01,02,57,17.90
2015,07,01,02,58,17.90
2015,07,01,02,59,17.90
2015,07,01,03,00,17.90
2015,07,01,03,01,17.90
2015,07,01,03,02,17.90
2015,07,01,03,03,18.00
2015,07,01,03,04,18.10
2015,07,01,03,05,18.20
2015,07,01,03,06,18.40
2015,07,01,03,07,18.50
2015,07,01,03,08,18.50
2015,07,01,03,09,18.60
2015,07,01,03,10,18.70
2015,07,01,03,11,18.70
2015,07,01,03,12,18.80
2015,07,01,03,13,18.80
2015,07,01,03,14,18.90
2015,07,01,03,15,18.90
2015,07,01,03,16,18.90
2015,07,01,03,17,18.90
2015,07,01,03,18,18.90
2015,07,01,03,19,18.90
2015,07,01,03,20,18.90
2015,07,01,03,21,18.90
2015,07,01,03,22,18.80
2015,07,01,03,23,18.80
2015,07,01,03,24,18.70
2015,07,01,03,25,18.70
2015,07,01,03,26,18.70
2015,07,01,03,27,18.60
2015,07,01,03,28,18.60
2015,07,01,03,29,18.50
2015,07,01,03,30,18.40
2015,07,01,03,31,18.30
2015,07,01,03,32,18.20
2015,07,01,03,33,18.10
2015,07,01,03,34,18.00
2015,07,01,03,35,17.90
2015,07,01,03,36,17.80
2015,07,01,03,37,17.70
2015,07,01,03,38,17.60
2015,07,01,03,39,17.50
2015,07,01,03,40,17.40
2015,07,01,03,41,17.30
2015,07,01,03,42,17.30
2015,07,01,03,43,17.20
2015,07,01,03,44,17.10
2015,07,01,03,45,17.00
2015,07,01,03,46,17.00
2015,07,01,03,47,16.90
2015,07,01,03,48,16.90
2015,07,01,03,49,16.90
2015,07,01,03,50,16.80
2015,07,01,03,51,16.80
2015,07,01,03,52,16.70
2015,07,01,03,53,16.70
2015,07,01,03,54,16.60
2015,07,01,03,55,16.40
2015,07,01,03,56,16.20
2015,07,01,03,57,15.90
2015,07,01,03,58,15.80
2015,07,01,03,59,15.60
2015,07,01,04,00,15.40
2015,07,01,04,01,15.30
2015,07,01,04,02,15.20
2015,07,01,04,03,15.10
2015,07,01,04,04,15.10
2015,07,01,04,05,15.00
2015,07,01,04,06,15.00
2015,07,01,04,07,14.90
2015,07,01,04,08,14.90
2015,07,01,04,09,14.90
2015,07,01,04,10,14.80
2015,07,01,04,11,14.80
2015,07,01,04,12,14.80
2015,07,01,04,13,14.70
2015,07,01,04,14,14.60
2015,07,01,04,15,14.60
2015,07,01,04,16,14.60
2015,07,01,04,17,14.60
2015,07,01,04,18,14.60
2015,07,01,04,19,14.50
2015,07,01,04,20,14.50
2015,07,01,04,21,14.50
2015,07,01,04,22,14.40
2015,07,01,04,23,14.40
2015,07,01,04,24,14.30
2015,07,01,04,25,14.30
2015,07,01,04,26,14.30
2015,07,01,04,27,14.30
2015,07,01,04,28,14.30
2015,07,01,04,29,14.30
2015,07,01,04,30,14.30
2015,07,01,04,31,14.30
2015,07,01,04,32,14.30
2015,07,01,04,33,14.40
2015,07,01,04,34,14.40
2015,07,01,04,35,14.40
2015,07,01,04,36,14.40
2015,07,01,04,37,14.50
2015,07,01,04,38,14.50
2015,07,01,04,39,14.50
2015,07,01,04,40,14.50
2015,07,01,04,41,14.60
2015,07,01,04,42,14.60
2015,07,01,04,43,14.70
2015,07,01,04,44,14.80
2015,07,01,04,45,14.90
2015,07,01,04,46,14.90
2015,07,01,04,47,15.00
2015,07,01,04,48,15.00
2015,07,01,04,49,15.10
2015,07,01,04,50,15.10
2015,07,01,04,51,15.20
2015,07,01,04,52,15.20
2015,07,01,04,53,15.20
2015,07,01,04,54,15.20
2015,07,01,04,55,15.20
2015,07,01,04,56,15.20
2015,07,01,04,57,15.20
2015,07,01,04,58,15.20
2015,07,01,04,59,15.10
2015,07,01,05,00,15.10
2015,07,01,05,01,15.10
2015,07,01,05,02,15.10
2015,07,01,05,03,15.00
2015,07,01,05,04,15.00
2015,07,01,05,05,15.00
2015,07,01,05,06,14.90
2015,07,01,05,07,14.90
2015,07,01,05,08,14.90
2015,07,01,05,09,14.80
2015,07,01,05,10,14.80
2015,07,01,05,11,14.80
2015,07,01,05,12,14.80
2015,07,01,05,13,14.80
2015,07,01,05,14,14.80
2015,07,01,05,15,14.80
2015,07,01,05,16,14.80
2015,07,01,05,17,14.80
2015,07,01,05,18,14.80
2015,07,01,05,19,14.80
2015,07,01,05,20,14.80
2015,07,01,05,21,14.80
2015,07,01,05,22,14.70
2015,07,01,05,23,14.70
2015,07,01,05,24,14.70
2015,07,01,05,25,14.70
2015,07,01,05,26,14.60
2015,07,01,05,27,14.60
2015,07,01,05,28,14.60
2015,07,01,05,29,14.60
2015,07,01,05,30,14.60
2015,07,01,05,31,14.70
2015,07,01,05,32,14.70
2015,07,01,05,33,14.70
2015,07,01,05,34,14.70
2015,07,01,05,35,14.80
2015,07,01,05,36,14.80
2015,07,01,05,37,14.90
2015,07,01,05,38,15.00
2015,07,01,05,39,15.10
2015,07,01,05,40,15.10
2015,07,01,05,41,15.20
2015,07,01,05,42,15.30
2015,07,01,05,43,15.30
2015,07,01,05,44,15.40
2015,07,01,05,45,15.50
2015,07,01,05,46,15.50
2015,07,01,05,47,15.60
2015,07,01,05,48,15.70
2015,07,01,05,49,15.70
2015,07,01,05,50,15.80
2015,07,01,05,51,15.80
2015,07,01,05,52,15.80
2015,07,01,05,53,15.80
2015,07,01,05,54,15.90
2015,07,01,05,55,16.00
2015,07,01,05,56,16.10
2015,07,01,05,57,16.20
2015,07,01,05,58,16.30
2015,07,01,05,59,16.30
2015,07,01,06,00,16.40
2015,07,01,06,01,16.50
2015,07,01,06,02,16.60
2015,07,01,06,03,16.70
2015,07,01,06,04,16.70
2015,07,01,06,05,16.70
2015,07,01,06,06,16.80
2015,07,01,06,07,16.90
2015,07,01,06,08,16.90
2015,07,01,06,09,17.00
2015,07,01,06,10,17.00
2015,07,01,06,11,17.10
2015,07,01,06,12,17.20
2015,07,01,06,13,17.20
2015,07,01,06,14,17.30
2015,07,01,06,15,17.30
2015,07,01,06,16,17.30
2015,07,01,06,17,17.30
2015,07,01,06,18,17.30
2015,07,01,06,19,17.30
2015,07,01,06,20,17.30
2015,07,01,06,21,17.30
2015,07,01,06,22,17.30
2015,07,01,06,23,17.40
2015,07,01,06,24,17.40
2015,07,01,06,25,17.50
2015,07,01,06,26,17.50
2015,07,01,06,27,17.40
2015,07,01,06,28,17.40
2015,07,01,06,29,17.30
2015,07,01,06,30,17.30
2015,07,01,06,31,17.30
2015,07,01,06,32,17.20
2015,07,01,06,33,17.20
2015,07,01,06,34,17.20
2015,07,01,06,35,17.20
2015,07,01,06,36,17.20
2015,07,01,06,37,17.20
2015,07,01,06,38,17.30
2015,07,01,06,39,17.30
2015,07,01,06,40,17.30
2015,07,01,06,41,17.30
2015,07,01,06,42,17.30
2015,07,01,06,43,17.40
2015,07,01,06,44,17.40
2015,07,01,06,45,17.50
2015,07,01,06,46,17.50
2015,07,01,06,47,17.50
2015,07,01,06,48,17.50
2015,07,01,06,49,17.50
2015,07,01,06,50,17.50
2015,07,01,06,51,17.50
2015,07,01,06,52,17.50
2015,07,01,06,53,17.60
2015,07,01,06,54,17.60
2015,07,01,06,55,17.60
2015,07,01,06,56,17.60
2015,07,01,06,57,17.60
2015,07,01,06,58,17.60
2015,07,01,06,59,17.50
2015,07,01,07,00,17.50
2015,07,01,07,01,17.60
2015,07,01,07,02,17.70
2015,07,01,07,03,17.70
2015,07,01,07,04,17.80
2015,07,01,07,05,17.80
2015,07,01,07,06,17.90
2015,07,01,07,07,17.90
2015,07,01,07,08,18.00
2015,07,01,07,09,18.10
2015,07,01,07,10,18.10
2015,07,01,07,11,18.20
2015,07,01,07,12,18.20
2015,07,01,07,13,18.20
2015,07,01,07,14,18.30
2015,07,01,07,15,18.30
2015,07,01,07,16,18.40
2015,07,01,07,17,18.40
2015,07,01,07,18,18.50
2015,07,01,07,19,18.50
2015,07,01,07,20,18.50
2015,07,01,07,21,18.50
2015,07,01,07,22,18.50
2015,07,01,07,23,18.50
2015,07,01,07,24,18.40
2015,07,01,07,25,18.20
2015,07,01,07,26,18.20
2015,07,01,07,27,18.20
2015,07,01,07,28,18.20
2015,07,01,07,29,18.20
2015,07,01,07,30,18.20
2015,07,01,07,31,18.20
2015,07,01,07,32,18.20
2015,07,01,07,33,18.20
2015,07,01,07,34,18.20
2015,07,01,07,35,18.20
2015,07,01,07,36,18.20
2015,07,01,07,37,18.20
2015,07,01,07,38,18.20
2015,07,01,07,39,18.20
2015,07,01,07,40,18.20
2015,07,01,07,41,18.10
2015,07,01,07,42,18.10
2015,07,01,07,43,18.00
2015,07,01,07,44,17.90
2015,07,01,07,45,17.90
2015,07,01,07,46,17.90
2015,07,01,07,47,17.90
2015,07,01,07,48,17.90
2015,07,01,07,49,18.00
2015,07,01,07,50,18.10
2015,07,01,07,51,18.10
2015,07,01,07,52,18.10
2015,07,01,07,53,18.10
2015,07,01,07,54,18.10
2015,07,01,07,55,18.10
2015,07,01,07,56,18.10
2015,07,01,07,57,18.10
2015,07,01,07,58,18.10
2015,07,01,07,59,18.10
2015,07,01,08,00,17.90
2015,07,01,08,01,17.90
2015,07,01,08,02,17.90
2015,07,01,08,03,18.00
2015,07,01,08,04,18.10
2015,07,01,08,05,18.00
2015,07,01,08,06,18.10
2015,07,01,08,07,18.10
2015,07,01,08,08,18.10
2015,07,01,08,09,18.20
2015,07,01,08,10,18.20
2015,07,01,08,11,18.20
2015,07,01,08,12,18.20
2015,07,01,08,13,18.20
2015,07,01,08,14,18.30
2015,07,01,08,15,18.20
2015,07,01,08,16,18.20
2015,07,01,08,17,18.20
2015,07,01,08,18,18.20
2015,07,01,08,19,18.20
2015,07,01,08,20,18.20
2015,07,01,08,21,18.20
2015,07,01,08,22,18.20
2015,07,01,08,23,18.20
2015,07,01,08,24,18.20
2015,07,01,08,25,18.20
2015,07,01,08,26,18.20
2015,07,01,08,27,18.20
2015,07,01,08,28,18.30
2015,07,01,08,29,18.30
2015,07,01,08,30,18.30
2015,07,01,08,31,18.30
2015,07,01,08,32,18.40
2015,07,01,08,33,18.40
2015,07,01,08,34,18.50
2015,07,01,08,35,18.60
2015,07,01,08,36,18.60
2015,07,01,08,37,18.60
2015,07,01,08,38,18.70
2015,07,01,08,39,18.90
2015,07,01,08,40,19.00
2015,07,01,08,41,19.10
2015,07,01,08,42,19.10
2015,07,01,08,43,19.20
2015,07,01,08,44,19.30
2015,07,01,08,45,19.30
2015,07,01,08,46,19.40
2015,07,01,08,47,19.40
2015,07,01,08,48,19.50
2015,07,01,08,49,19.50
2015,07,01,08,50,19.60
2015,07,01,08,51,19.60
2015,07,01,08,52,19.70
2015,07,01,08,53,19.70
2015,07,01,08,54,19.70
2015,07,01,08,55,19.70
2015,07,01,08,56,19.70
2015,07,01,08,57,19.80
2015,07,01,08,58,19.80
2015,07,01,08,59,19.90
2015,07,01,09,00,19.90
2015,07,01,09,01,20.00
2015,07,01,09,02,20.10
2015,07,01,09,03,20.10
2015,07,01,09,04,20.10
2015,07,01,09,05,20.20
2015,07,01,09,06,20.20
2015,07,01,09,07,20.20
2015,07,01,09,08,20.20
2015,07,01,09,09,20.20
2015,07,01,09,10,20.30
2015,07,01,09,11,20.30
2015,07,01,09,12,20.30
2015,07,01,09,13,20.20
2015,07,01,09,14,20.30
2015,07,01,09,15,20.30
2015,07,01,09,16,20.30
2015,07,01,09,17,20.30
2015,07,01,09,18,20.40
2015,07,01,09,19,20.50
2015,07,01,09,20,20.60
2015,07,01,09,21,20.60
2015,07,01,09,22,20.60
2015,07,01,09,23,20.60
2015,07,01,09,24,20.60
2015,07,01,09,25,20.60
2015,07,01,09,26,20.70
2015,07,01,09,27,20.70
2015,07,01,09,28,20.80
2015,07,01,09,29,20.80
2015,07,01,09,30,20.70
2015,07,01,09,31,20.70
2015,07,01,09,32,20.70
2015,07,01,09,33,20.60
2015,07,01,09,34,20.60
2015,07,01,09,35,20.50
2015,07,01,09,36,20.40
2015,07,01,09,37,20.40
2015,07,01,09,38,20.30
2015,07,01,09,39,20.30
2015,07,01,09,40,20.30
2015,07,01,09,41,20.40
2015,07,01,09,42,20.40
2015,07,01,09,43,20.50
2015,07,01,09,44,20.50
2015,07,01,09,45,20.50
2015,07,01,09,46,20.50
2015,07,01,09,47,20.50
2015,07,01,09,48,20.50
2015,07,01,09,49,20.50
2015,07,01,09,50,20.60
2015,07,01,09,51,20.70
2015,07,01,09,52,20.80
2015,07,01,09,53,20.90
2015,07,01,09,54,20.90
2015,07,01,09,55,20.80
2015,07,01,09,56,20.90
2015,07,01,09,57,21.00
2015,07,01,09,58,21.00
2015,07,01,09,59,21.00
2015,07,01,10,00,21.00
2015,07,01,10,01,21.00
2015,07,01,10,02,21.10
2015,07,01,10,03,21.20
2015,07,01,10,04,21.30
2015,07,01,10,05,21.30
2015,07,01,10,06,21.30
2015,07,01,10,07,21.30
2015,07,01,10,08,21.40
2015,07,01,10,09,21.50
2015,07,01,10,10,21.60
2015,07,01,10,11,21.60
2015,07,01,10,12,21.60
2015,07,01,10,13,21.60
2015,07,01,10,14,21.60
2015,07,01,10,15,21.70
2015,07,01,10,16,21.70
2015,07,01,10,17,21.70
2015,07,01,10,18,21.70
2015,07,01,10,19,21.60
2015,07,01,10,20,21.60
2015,07,01,10,21,21.60
2015,07,01,10,22,21.60
2015,07,01,10,23,21.50
2015,07,01,10,24,21.40
2015,07,01,10,25,21.40
2015,07,01,10,26,21.40
2015,07,01,10,27,21.40
2015,07,01,10,28,21.50
2015,07,01,10,29,21.60
2015,07,01,10,30,21.60
2015,07,01,10,31,21.60
2015,07,01,10,32,21.60
2015,07,01,10,33,21.60
2015,07,01,10,34,21.60
2015,07,01,10,35,21.70
2015,07,01,10,36,21.70
2015,07,01,10,37,21.80
2015,07,01,10,38,21.80
2015,07,01,10,39,22.00
2015,07,01,10,40,22.00
2015,07,01,10,41,22.10
2015,07,01,10,42,22.20
2015,07,01,10,43,22.20
2015,07,01,10,44,22.30
2015,07,01,10,45,22.40
2015,07,01,10,46,22.50
2015,07,01,10,47,22.50
2015,07,01,10,48,22.40
2015,07,01,10,49,22.20
2015,07,01,10,50,22.10
2015,07,01,10,51,22.00
2015,07,01,10,52,21.90
2015,07,01,10,53,21.70
2015,07,01,10,54,21.60
2015,07,01,10,55,21.60
2015,07,01,10,56,21.60
2015,07,01,10,57,21.60
2015,07,01,10,58,21.70
2015,07,01,10,59,21.80
2015,07,01,11,00,21.90
2015,07,01,11,01,22.00
2015,07,01,11,02,22.10
2015,07,01,11,03,22.20
2015,07,01,11,04,22.30
2015,07,01,11,05,22.50
2015,07,01,11,06,22.60
2015,07,01,11,07,22.70
2015,07,01,11,08,22.60
2015,07,01,11,09,22.60
2015,07,01,11,10,22.60
2015,07,01,11,11,22.60
2015,07,01,11,12,22.60
2015,07,01,11,13,22.60
2015,07,01,11,14,22.50
2015,07,01,11,15,22.50
2015,07,01,11,16,22.50
2015,07,01,11,17,22.40
2015,07,01,11,18,22.40
2015,07,01,11,19,22.30
2015,07,01,11,20,22.20
2015,07,01,11,21,22.20
2015,07,01,11,22,22.10
2015,07,01,11,23,22.00
2015,07,01,11,24,21.90
2015,07,01,11,25,22.00
2015,07,01,11,26,22.00
2015,07,01,11,27,22.10
2015,07,01,11,28,22.00
2015,07,01,11,29,22.00
2015,07,01,11,30,22.00
2015,07,01,11,31,22.00
2015,07,01,11,32,22.00
2015,07,01,11,33,22.00
2015,07,01,11,34,21.90
2015,07,01,11,35,21.90
2015,07,01,11,36,21.90
2015,07,01,11,37,21.90
2015,07,01,11,38,21.80
2015,07,01,11,39,21.80
2015,07,01,11,40,21.70
2015,07,01,11,41,21.70
2015,07,01,11,42,21.70
2015,07,01,11,43,21.60
2015,07,01,11,44,21.70
2015,07,01,11,45,21.70
2015,07,01,11,46,21.70
2015,07,01,11,47,21.80
2015,07,01,11,48,21.90
2015,07,01,11,49,21.90
2015,07,01,11,50,21.90
2015,07,01,11,51,22.00
2015,07,01,11,52,22.00
2015,07,01,11,53,22.00
2015,07,01,11,54,22.00
2015,07,01,11,55,22.00
2015,07,01,11,56,22.10
2015,07,01,11,57,22.00
2015,07,01,11,58,22.00
2015,07,01,11,59,22.00
2015,07,01,12,00,22.00
2015,07,01,12,01,22.00
2015,07,01,12,02,22.00
2015,07,01,12,03,22.00
2015,07,01,12,04,22.10
2015,07,01,12,05,22.10
2015,07,01,12,06,22.20
2015,07,01,12,07,22.20
2015,07,01,12,08,22.20
2015,07,01,12,09,22.20
2015,07,01,12,10,22.20
2015,07,01,12,11,22.30
2015,07,01,12,12,22.40
2015,07,01,12,13,22.40
2015,07,01,12,14,22.40
2015,07,01,12,15,22.50
2015,07,01,12,16,22.50
2015,07,01,12,17,22.50
2015,07,01,12,18,22.50
2015,07,01,12,19,22.50
2015,07,01,12,20,22.50
2015,07,01,12,21,22.60
2015,07,01,12,22,22.70
2015,07,01,12,23,22.70
2015,07,01,12,24,22.70
2015,07,01,12,25,22.80
2015,07,01,12,26,22.90
2015,07,01,12,27,22.90
2015,07,01,12,28,23.00
2015,07,01,12,29,23.10
2015,07,01,12,30,23.20
2015,07,01,12,31,23.20
2015,07,01,12,32,23.20
2015,07,01,12,33,23.20
2015,07,01,12,34,23.20
2015,07,01,12,35,23.30
2015,07,01,12,36,23.30
2015,07,01,12,37,23.30
2015,07,01,12,38,23.30
2015,07,01,12,39,23.40
2015,07,01,12,40,23.60
2015,07,01,12,41,23.70
2015,07,01,12,42,23.70
2015,07,01,12,43,23.70
2015,07,01,12,44,23.80
2015,07,01,12,45,23.80
2015,07,01,12,46,23.80
2015,07,01,12,47,23.70
2015,07,01,12,48,23.70
2015,07,01,12,49,23.60
2015,07,01,12,50,23.60
2015,07,01,12,51,23.60
2015,07,01,12,52,23.70
2015,07,01,12,53,23.70
2015,07,01,12,54,23.70
2015,07,01,12,55,23.70
2015,07,01,12,56,23.60
2015,07,01,12,57,23.50
2015,07,01,12,58,23.40
2015,07,01,12,59,23.40
2015,07,01,13,00,23.40
2015,07,01,13,01,23.40
2015,07,01,13,02,23.50
2015,07,01,13,03,23.60
2015,07,01,13,04,23.70
2015,07,01,13,05,23.70
2015,07,01,13,06,23.70
2015,07,01,13,07,23.70
2015,07,01,13,08,23.80
2015,07,01,13,09,23.80
2015,07,01,13,10,23.80
2015,07,01,13,11,23.80
2015,07,01,13,12,23.90
2015,07,01,13,13,23.90
2015,07,01,13,14,23.80
2015,07,01,13,15,23.80
2015,07,01,13,16,23.80
2015,07,01,13,17,23.90
2015,07,01,13,18,23.90
2015,07,01,13,19,23.90
2015,07,01,13,20,23.90
2015,07,01,13,21,23.90
2015,07,01,13,22,23.90
2015,07,01,13,23,24.00
2015,07,01,13,24,24.10
2015,07,01,13,25,24.10
2015,07,01,13,26,24.20
2015,07,01,13,27,24.20
2015,07,01,13,28,24.30
2015,07,01,13,29,24.30
2015,07,01,13,30,24.30
2015,07,01,13,31,24.20
2015,07,01,13,32,24.10
2015,07,01,13,33,24.10
2015,07,01,13,34,24.00
2015,07,01,13,35,24.10
2015,07,01,13,36,24.10
2015,07,01,13,37,24.10
2015,07,01,13,38,24.10
2015,07,01,13,39,24.10
2015,07,01,13,40,24.10
2015,07,01,13,41,24.20
2015,07,01,13,42,24.30
2015,07,01,13,43,24.40
2015,07,01,13,44,24.50
2015,07,01,13,45,24.60
2015,07,01,13,46,24.60
2015,07,01,13,47,24.70
2015,07,01,13,48,24.70
2015,07,01,13,49,24.60
2015,07,01,13,50,24.60
2015,07,01,13,51,24.60
2015,07,01,13,52,24.60
2015,07,01,13,53,24.80
2015,07,01,13,54,24.80
2015,07,01,13,55,24.90
2015,07,01,13,56,24.90
2015,07,01,13,57,24.90
2015,07,01,13,58,25.00
2015,07,01,13,59,25.10
2015,07,01,14,00,25.10
2015,07,01,14,01,25.20
2015,07,01,14,02,25.20
2015,07,01,14,03,25.30
2015,07,01,14,04,25.40
2015,07,01,14,05,25.40
2015,07,01,14,06,25.30
2015,07,01,14,07,25.30
2015,07,01,14,08,25.30
2015,07,01,14,09,25.30
2015,07,01,14,10,25.30
2015,07,01,14,11,25.30
2015,07,01,14,12,25.30
2015,07,01,14,13,25.20
2015,07,01,14,14,25.10
2015,07,01,14,15,25.10
2015,07,01,14,16,25.00
2015,07,01,14,17,24.90
2015,07,01,14,18,24.90
2015,07,01,14,19,24.90
2015,07,01,14,20,24.90
2015,07,01,14,21,25.00
2015,07,01,14,22,25.10
2015,07,01,14,23,25.20
2015,07,01,14,24,25.20
2015,07,01,14,25,25.10
2015,07,01,14,26,25.10
2015,07,01,14,27,25.10
2015,07,01,14,28,25.00
2015,07,01,14,29,25.00
2015,07,01,14,30,25.00
2015,07,01,14,31,24.90
2015,07,01,14,32,24.90
2015,07,01,14,33,24.80
2015,07,01,14,34,24.80
2015,07,01,14,35,24.80
2015,07,01,14,36,24.80
2015,07,01,14,37,24.80
2015,07,01,14,38,24.70
2015,07,01,14,39,24.80
2015,07,01,14,40,24.80
2015,07,01,14,41,24.80
2015,07,01,14,42,24.80
2015,07,01,14,43,24.70
2015,07,01,14,44,24.70
2015,07,01,14,45,24.80
2015,07,01,14,46,24.90
2015,07,01,14,47,24.90
2015,07,01,14,48,25.00
2015,07,01,14,49,25.00
2015,07,01,14,50,25.00
2015,07,01,14,51,24.90
2015,07,01,14,52,24.90
2015,07,01,14,53,25.00
2015,07,01,14,54,25.00
2015,07,01,14,55,25.10
2015,07,01,14,56,25.20
2015,07,01,14,57,25.20
2015,07,01,14,58,25.30
2015,07,01,14,59,25.40
2015,07,01,15,00,25.40
2015,07,01,15,01,25.50
2015,07,01,15,02,25.50
2015,07,01,15,03,25.60
2015,07,01,15,04,25.60
2015,07,01,15,05,25.70
2015,07,01,15,06,25.70
2015,07,01,15,07,25.80
2015,07,01,15,08,25.80
2015,07,01,15,09,25.90
2015,07,01,15,10,25.90
2015,07,01,15,11,26.00
2015,07,01,15,12,26.00
2015,07,01,15,13,26.00
2015,07,01,15,14,26.00
2015,07,01,15,15,26.10
2015,07,01,15,16,26.20
2015,07,01,15,17,26.30
2015,07,01,15,18,26.50
2015,07,01,15,19,26.60
2015,07,01,15,20,26.60
2015,07,01,15,21,26.60
2015,07,01,15,22,26.60
2015,07,01,15,23,26.50
2015,07,01,15,24,26.50
2015,07,01,15,25,26.60
2015,07,01,15,26,26.60
2015,07,01,15,27,26.60
2015,07,01,15,28,26.60
2015,07,01,15,29,26.60
2015,07,01,15,30,26.60
2015,07,01,15,31,26.60
2015,07,01,15,32,26.60
2015,07,01,15,33,26.60
2015,07,01,15,34,26.60
2015,07,01,15,35,26.60
2015,07,01,15,36,26.70
2015,07,01,15,37,26.80
2015,07,01,15,38,27.00
2015,07,01,15,39,27.10
2015,07,01,15,40,27.00
2015,07,01,15,41,26.90
2015,07,01,15,42,26.90
2015,07,01,15,43,26.80
2015,07,01,15,44,26.90
2015,07,01,15,45,26.90
2015,07,01,15,46,26.90
2015,07,01,15,47,26.90
2015,07,01,15,48,26.90
2015,07,01,15,49,26.90
2015,07,01,15,50,26.90
2015,07,01,15,51,26.90
2015,07,01,15,52,27.00
2015,07,01,15,53,27.10
2015,07,01,15,54,27.20
2015,07,01,15,55,27.10
2015,07,01,15,56,26.90
2015,07,01,15,57,26.90
2015,07,01,15,58,27.00
2015,07,01,15,59,27.10
2015,07,01,16,00,27.10
2015,07,01,16,01,27.10
2015,07,01,16,02,27.20
2015,07,01,16,03,27.20
2015,07,01,16,04,27.30
2015,07,01,16,05,27.30
2015,07,01,16,06,27.50
2015,07,01,16,07,27.60
2015,07,01,16,08,27.60
2015,07,01,16,09,27.70
2015,07,01,16,10,27.60
2015,07,01,16,11,27.60
2015,07,01,16,12,27.60
2015,07,01,16,13,27.50
2015,07,01,16,14,27.40
2015,07,01,16,15,27.50
2015,07,01,16,16,27.60
2015,07,01,16,17,27.60
2015,07,01,16,18,27.70
2015,07,01,16,19,27.80
2015,07,01,16,20,27.80
2015,07,01,16,21,27.90
2015,07,01,16,22,27.90
2015,07,01,16,23,27.90
2015,07,01,16,24,27.90
2015,07,01,16,25,27.80
2015,07,01,16,26,27.70
2015,07,01,16,27,27.70
2015,07,01,16,28,27.70
2015,07,01,16,29,27.70
2015,07,01,16,30,27.70
2015,07,01,16,31,27.70
2015,07,01,16,32,27.70
2015,07,01,16,33,27.80
2015,07,01,16,34,27.90
2015,07,01,16,35,27.90
2015,07,01,16,36,27.90
2015,07,01,16,37,28.00
2015,07,01,16,38,28.10
2015,07,01,16,39,28.10
2015,07,01,16,40,28.10
2015,07,01,16,41,28.00
2015,07,01,16,42,28.00
2015,07,01,16,43,28.10
2015,07,01,16,44,28.10
2015,07,01,16,45,28.20
2015,07,01,16,46,28.30
2015,07,01,16,47,28.40
2015,07,01,16,48,28.50
2015,07,01,16,49,28.60
2015,07,01,16,50,28.60
2015,07,01,16,51,28.50
2015,07,01,16,52,28.40
2015,07,01,16,53,28.30
2015,07,01,16,54,28.40
2015,07,01,16,55,28.40
2015,07,01,16,56,28.40
2015,07,01,16,57,28.30
2015,07,01,16,58,28.20
2015,07,01,16,59,28.10
2015,07,01,17,00,28.00
2015,07,01,17,01,28.10
2015,07,01,17,02,28.10
2015,07,01,17,03,28.10
2015,07,01,17,04,28.10
2015,07,01,17,05,28.10
2015,07,01,17,06,28.20
2015,07,01,17,07,28.20
2015,07,01,17,08,28.20
2015,07,01,17,09,28.20
2015,07,01,17,10,28.20
2015,07,01,17,11,28.20
2015,07,01,17,12,28.10
2015,07,01,17,13,28.10
2015,07,01,17,14,28.10
2015,07,01,17,15,28.10
2015,07,01,17,16,28.20
2015,07,01,17,17,28.30
2015,07,01,17,18,28.50
2015,07,01,17,19,28.60